Location: Poughquag
(41.6090°N, 73.6820°W)
Time: 01:04:15
(UTC-05:00)

Courier 1B Rocket - Visible Passes

Search period start: 29 November 2023 00:00
Search period end: 09 December 2023 00:00
Orbit: 920 x 1201 km, 28.2° (Epoch: 28 November)

Date Brightness Start Highest point End Pass type
(mag) Time Alt. Az. Time Alt. Az. Time Alt. Az.
29 Nov 6.9 16:57:02 10° SW 17:01:50 23° S 17:06:45 10° SE visible
29 Nov 7.3 18:50:55 10° SW 18:54:17 15° SSW 18:57:45 10° SSE visible
30 Nov 7.2 17:49:27 10° SW 17:53:29 18° SSW 17:57:38 10° SSE visible
01 Dec 7.1 16:48:14 10° WSW 16:52:41 20° S 16:57:13 10° SE visible
01 Dec 7.6 18:44:19 10° SSW 18:45:03 10° SSW 18:45:48 10° SSW visible
02 Dec 7.4 17:41:19 10° SW 17:44:17 14° SSW 17:47:17 10° S visible
